Time,TemperatureF,DewpointF,PressureIn,WindDirection,WindDirectionDegrees,WindSpeedMPH,WindSpeedGustMPH,Humidity,HourlyPrecipIn,Conditions,Clouds,dailyrainin,SoftwareType,DateUTC
2013-03-11 00:03:00,33.0,29.0,30.30,West,265,0.0,2.0,86,0.00,,,0.00,,2013-03-11 04:03:00,
2013-03-11 00:12:00,33.0,29.0,30.30,West,265,0.0,2.0,86,0.00,,,0.00,,2013-03-11 04:12:00,
2013-03-11 00:22:00,33.0,29.0,30.32,West,265,1.0,1.0,86,0.00,,,0.00,,2013-03-11 04:22:00,
2013-03-11 00:33:00,33.0,30.0,30.32,West,265,2.0,4.0,87,0.00,,,0.00,,2013-03-11 04:33:00,
2013-03-11 00:43:00,33.0,30.0,30.32,West,265,2.0,4.0,87,0.00,,,0.00,,2013-03-11 04:43:00,
2013-03-11 00:53:00,33.0,30.0,30.30,SW,233,1.0,3.0,87,0.00,,,0.00,,2013-03-11 04:53:00,
2013-03-11 01:03:00,33.0,29.0,30.30,WSW,254,2.0,3.0,86,0.00,,,0.00,,2013-03-11 05:03:00,
2013-03-11 01:12:00,33.0,29.0,30.30,WSW,254,2.0,3.0,86,0.00,,,0.00,,2013-03-11 05:12:00,
2013-03-11 01:22:00,33.0,29.0,30.30,SW,230,0.0,3.0,86,0.00,,,0.00,,2013-03-11 05:22:00,
2013-03-11 01:32:00,33.0,30.0,30.30,SW,230,0.0,2.0,87,0.00,,,0.00,,2013-03-11 05:32:00,
2013-03-11 01:43:00,33.0,30.0,30.30,SW,230,0.0,2.0,87,0.00,,,0.00,,2013-03-11 05:43:00,
2013-03-11 01:52:00,33.0,30.0,30.30,West,263,1.0,3.0,87,0.00,,,0.00,,2013-03-11 05:52:00,
2013-03-11 02:02:00,34.0,31.0,30.29,WSW,243,3.0,4.0,88,0.00,,,0.00,,2013-03-11 06:02:00,
2013-03-11 02:12:00,34.0,31.0,30.29,WSW,243,3.0,4.0,88,0.00,,,0.00,,2013-03-11 06:12:00,
2013-03-11 02:22:00,34.0,31.0,30.29,SW,236,1.0,4.0,88,0.00,,,0.00,,2013-03-11 06:22:00,
2013-03-11 02:32:00,35.0,32.0,30.30,SW,226,1.0,4.0,87,0.00,,,0.00,,2013-03-11 06:32:00,
2013-03-11 02:42:00,35.0,32.0,30.30,SW,226,1.0,4.0,87,0.00,,,0.00,,2013-03-11 06:42:00,
2013-03-11 02:53:00,35.0,32.0,30.30,SW,227,1.0,3.0,87,0.00,,,0.00,,2013-03-11 06:53:00,
2013-03-11 03:03:00,35.0,32.0,30.30,SW,231,4.0,8.0,87,0.00,,,0.00,,2013-03-11 07:03:00,
2013-03-11 03:12:00,35.0,32.0,30.30,SW,231,4.0,8.0,87,0.00,,,0.00,,2013-03-11 07:12:00,
2013-03-11 03:22:00,36.0,32.0,30.29,WSW,237,6.0,14.0,86,0.00,,,0.00,,2013-03-11 07:22:00,
2013-03-11 03:32:00,36.0,32.0,30.27,WSW,245,5.0,12.0,86,0.00,,,0.00,,2013-03-11 07:32:00,
2013-03-11 03:42:00,36.0,32.0,30.27,WSW,245,5.0,12.0,86,0.00,,,0.00,,2013-03-11 07:42:00,
2013-03-11 03:52:00,36.0,32.0,30.28,WSW,240,5.0,10.0,85,0.00,,,0.00,,2013-03-11 07:52:00,
2013-03-11 04:02:00,36.0,32.0,30.27,WSW,250,5.0,8.0,85,0.00,,,0.00,,2013-03-11 08:02:00,
2013-03-11 04:12:00,36.0,32.0,30.27,WSW,250,5.0,8.0,85,0.00,,,0.00,,2013-03-11 08:12:00,
2013-03-11 04:22:00,36.0,32.0,30.26,South,190,3.0,8.0,86,0.00,,,0.00,,2013-03-11 08:22:00,
2013-03-11 04:32:00,36.0,32.0,30.25,SW,215,4.0,6.0,86,0.00,,,0.00,,2013-03-11 08:32:00,
2013-03-11 04:42:00,36.0,32.0,30.25,SW,215,4.0,6.0,86,0.00,,,0.00,,2013-03-11 08:42:00,
2013-03-11 04:52:00,36.0,32.0,30.25,SW,222,4.0,6.0,86,0.00,,,0.00,,2013-03-11 08:52:00,
2013-03-11 05:02:00,36.0,32.0,30.25,SW,226,4.0,9.0,86,0.00,,,0.00,,2013-03-11 09:02:00,
2013-03-11 05:12:00,36.0,32.0,30.25,SW,226,4.0,9.0,86,0.00,,,0.00,,2013-03-11 09:12:00,
2013-03-11 05:23:00,36.0,32.0,30.23,SSW,192,2.0,7.0,86,0.00,,,0.00,,2013-03-11 09:23:00,
2013-03-11 05:32:00,36.0,32.0,30.23,WSW,241,4.0,8.0,86,0.00,,,0.00,,2013-03-11 09:32:00,
2013-03-11 05:42:00,36.0,32.0,30.23,WSW,241,4.0,8.0,86,0.00,,,0.00,,2013-03-11 09:42:00,
2013-03-11 05:53:00,37.0,33.0,30.23,WSW,242,4.0,8.0,86,0.00,,,0.00,,2013-03-11 09:53:00,
2013-03-11 06:02:00,37.0,33.0,30.23,WSW,238,4.0,8.0,86,0.00,,,0.00,,2013-03-11 10:02:00,
2013-03-11 06:12:00,37.0,33.0,30.23,WSW,238,4.0,8.0,86,0.00,,,0.00,,2013-03-11 10:12:00,
2013-03-11 06:22:00,37.0,33.0,30.23,SSW,207,3.0,6.0,86,0.00,,,0.00,,2013-03-11 10:22:00,
2013-03-11 06:32:00,37.0,34.0,30.23,SW,231,4.0,6.0,87,0.00,,,0.00,,2013-03-11 10:32:00,
2013-03-11 06:42:00,37.0,34.0,30.23,SW,231,4.0,6.0,87,0.00,,,0.00,,2013-03-11 10:42:00,
2013-03-11 06:52:00,37.0,34.0,30.23,SSW,208,3.0,8.0,87,0.00,,,0.00,,2013-03-11 10:52:00,
2013-03-11 07:02:00,37.0,34.0,30.24,WSW,250,4.0,5.0,87,0.00,,,0.00,,2013-03-11 11:02:00,
2013-03-11 07:12:00,37.0,34.0,30.24,WSW,250,4.0,5.0,87,0.00,,,0.00,,2013-03-11 11:12:00,
2013-03-11 07:22:00,37.0,34.0,30.23,SSW,200,3.0,5.0,87,0.00,,,0.00,,2013-03-11 11:22:00,
2013-03-11 07:33:00,37.0,34.0,30.23,SW,229,5.0,7.0,87,0.00,,,0.00,,2013-03-11 11:33:00,
2013-03-11 07:42:00,37.0,34.0,30.23,SW,229,5.0,7.0,87,0.00,,,0.00,,2013-03-11 11:42:00,
2013-03-11 07:53:00,38.0,34.0,30.24,SSW,207,3.0,7.0,87,0.00,,,0.00,,2013-03-11 11:53:00,
2013-03-11 08:02:00,38.0,34.0,30.25,SW,232,4.0,7.0,87,0.00,,,0.00,,2013-03-11 12:02:00,
2013-03-11 08:12:00,38.0,34.0,30.25,SW,232,4.0,7.0,87,0.00,,,0.00,,2013-03-11 12:12:00,
2013-03-11 08:22:00,38.0,34.0,30.25,WSW,244,3.0,7.0,87,0.00,,,0.00,,2013-03-11 12:22:00,
2013-03-11 08:32:00,38.0,34.0,30.26,SW,235,4.0,7.0,87,0.00,,,0.00,,2013-03-11 12:32:00,
2013-03-11 08:43:00,38.0,34.0,30.26,SW,235,4.0,7.0,87,0.00,,,0.00,,2013-03-11 12:43:00,
2013-03-11 08:53:00,38.0,34.0,30.27,SW,234,2.0,6.0,87,0.00,,,0.00,,2013-03-11 12:53:00,
2013-03-11 09:03:00,39.0,35.0,30.27,SW,221,3.0,6.0,87,0.00,,,0.00,,2013-03-11 13:03:00,
2013-03-11 09:12:00,39.0,35.0,30.27,SW,221,3.0,6.0,87,0.00,,,0.00,,2013-03-11 13:12:00,
2013-03-11 09:22:00,39.0,35.0,30.27,SW,236,5.0,9.0,87,0.00,,,0.00,,2013-03-11 13:22:00,
2013-03-11 09:32:00,39.0,35.0,30.27,SW,217,6.0,8.0,87,0.00,,,0.00,,2013-03-11 13:32:00,
2013-03-11 09:42:00,39.0,35.0,30.27,SW,217,6.0,8.0,87,0.00,,,0.00,,2013-03-11 13:42:00,
2013-03-11 09:53:00,39.0,35.0,30.26,SSW,201,3.0,7.0,87,0.00,,,0.00,,2013-03-11 13:53:00,
2013-03-11 10:02:00,39.0,35.0,30.27,SW,236,5.0,9.0,87,0.00,,,0.00,,2013-03-11 14:02:00,
2013-03-11 10:12:00,39.0,35.0,30.27,SW,236,5.0,9.0,87,0.00,,,0.00,,2013-03-11 14:12:00,
2013-03-11 10:22:00,39.0,35.0,30.27,WSW,247,5.0,10.0,86,0.00,,,0.00,,2013-03-11 14:22:00,
2013-03-11 10:33:00,40.0,36.0,30.26,SSE,159,6.0,12.0,85,0.00,,,0.00,,2013-03-11 14:33:00,
2013-03-11 10:42:00,40.0,36.0,30.26,SSE,159,6.0,12.0,85,0.00,,,0.00,,2013-03-11 14:42:00,
2013-03-11 10:53:00,40.0,36.0,30.26,WSW,237,4.0,14.0,84,0.00,,,0.00,,2013-03-11 14:53:00,
2013-03-11 11:03:00,40.0,35.0,30.24,SW,215,7.0,14.0,83,0.00,,,0.00,,2013-03-11 15:03:00,
2013-03-11 11:13:00,40.0,35.0,30.24,SW,215,7.0,14.0,83,0.00,,,0.00,,2013-03-11 15:13:00,
2013-03-11 11:23:00,40.0,35.0,30.25,SSW,198,7.0,13.0,82,0.00,,,0.00,,2013-03-11 15:23:00,
2013-03-11 11:32:00,41.0,36.0,30.24,SW,218,6.0,17.0,82,0.00,,,0.00,,2013-03-11 15:32:00,
2013-03-11 11:42:00,41.0,36.0,30.24,SW,218,6.0,17.0,82,0.00,,,0.00,,2013-03-11 15:42:00,
2013-03-11 11:53:00,41.0,36.0,30.24,SW,234,5.0,14.0,83,0.00,,,0.00,,2013-03-11 15:53:00,
2013-03-11 12:02:00,41.0,36.0,30.24,WSW,245,8.0,12.0,81,0.00,,,0.00,,2013-03-11 16:02:00,
2013-03-11 12:13:00,41.0,36.0,30.24,WSW,245,8.0,12.0,81,0.00,,,0.00,,2013-03-11 16:13:00,
2013-03-11 12:22:00,41.0,36.0,30.24,SW,234,6.0,12.0,81,0.00,,,0.00,,2013-03-11 16:22:00,
2013-03-11 12:32:00,41.0,36.0,30.24,SW,229,8.0,15.0,81,0.00,,,0.00,,2013-03-11 16:32:00,
2013-03-11 12:43:00,41.0,36.0,30.24,SW,229,8.0,15.0,81,0.00,,,0.00,,2013-03-11 16:43:00,
2013-03-11 12:53:00,42.0,37.0,30.24,WSW,239,6.0,13.0,81,0.00,,,0.00,,2013-03-11 16:53:00,
2013-03-11 13:02:00,41.0,35.0,30.23,SW,232,8.0,14.0,80,0.00,,,0.00,,2013-03-11 17:02:00,
2013-03-11 13:16:00,41.0,35.0,30.23,SW,232,8.0,14.0,80,0.00,,,0.00,,2013-03-11 17:16:00,
2013-03-11 13:28:00,41.0,36.0,30.23,WSW,248,6.0,13.0,81,0.00,,,0.00,,2013-03-11 17:28:00,
2013-03-11 13:37:00,41.0,35.0,30.22,SW,219,7.0,14.0,80,0.00,,,0.00,,2013-03-11 17:37:00,
2013-03-11 13:42:00,41.0,35.0,30.22,SW,219,7.0,14.0,80,0.00,,,0.00,,2013-03-11 17:42:00,
2013-03-11 13:53:00,42.0,36.0,30.22,SW,217,7.0,11.0,80,0.00,,,0.00,,2013-03-11 17:53:00,
2013-03-11 14:02:00,41.0,35.0,30.22,SSW,207,7.0,12.0,80,0.00,,,0.00,,2013-03-11 18:02:00,
2013-03-11 14:12:00,41.0,35.0,30.22,SSW,207,7.0,12.0,80,0.00,,,0.00,,2013-03-11 18:12:00,
2013-03-11 14:23:00,43.0,37.0,30.22,SW,232,8.0,15.0,79,0.00,,,0.00,,2013-03-11 18:23:00,
2013-03-11 14:33:00,42.0,36.0,30.22,SW,229,5.0,11.0,80,0.00,,,0.00,,2013-03-11 18:33:00,
2013-03-11 14:42:00,42.0,36.0,30.22,SW,229,5.0,11.0,80,0.00,,,0.00,,2013-03-11 18:42:00,
2013-03-11 14:53:00,41.0,35.0,30.21,SSW,209,7.0,11.0,80,0.00,,,0.00,,2013-03-11 18:53:00,
2013-03-11 15:02:00,41.0,36.0,30.22,SW,214,6.0,15.0,81,0.00,,,0.00,,2013-03-11 19:02:00,
2013-03-11 15:13:00,41.0,36.0,30.22,SW,214,6.0,15.0,81,0.00,,,0.00,,2013-03-11 19:13:00,
2013-03-11 15:23:00,41.0,36.0,30.21,WSW,238,5.0,11.0,81,0.00,,,0.00,,2013-03-11 19:23:00,
2013-03-11 15:33:00,41.0,36.0,30.22,SW,216,6.0,14.0,82,0.00,,,0.00,,2013-03-11 19:33:00,
2013-03-11 15:42:00,41.0,36.0,30.22,SW,216,6.0,14.0,82,0.00,,,0.00,,2013-03-11 19:42:00,
2013-03-11 15:53:00,41.0,36.0,30.21,SW,217,7.0,14.0,81,0.00,,,0.00,,2013-03-11 19:53:00,
2013-03-11 16:02:00,41.0,36.0,30.21,SW,230,7.0,11.0,82,0.00,,,0.00,,2013-03-11 20:02:00,
2013-03-11 16:12:00,41.0,36.0,30.21,SW,230,7.0,11.0,82,0.00,,,0.00,,2013-03-11 20:12:00,
2013-03-11 16:22:00,40.0,35.0,30.22,SSE,163,5.0,10.0,83,0.00,,,0.00,,2013-03-11 20:22:00,
2013-03-11 16:32:00,40.0,35.0,30.20,SW,227,6.0,12.0,83,0.00,,,0.00,,2013-03-11 20:32:00,
2013-03-11 16:43:00,40.0,35.0,30.20,SW,227,6.0,12.0,83,0.00,,,0.00,,2013-03-11 20:43:00,
2013-03-11 16:53:00,40.0,36.0,30.20,WSW,257,5.0,12.0,84,0.00,,,0.00,,2013-03-11 20:53:00,
2013-03-11 17:03:00,40.0,36.0,30.19,SW,225,8.0,14.0,84,0.00,,,0.00,,2013-03-11 21:03:00,
2013-03-11 17:13:00,40.0,36.0,30.19,SW,225,8.0,14.0,84,0.00,,,0.00,,2013-03-11 21:13:00,
2013-03-11 17:23:00,40.0,36.0,30.19,SW,215,7.0,13.0,85,0.00,,,0.00,,2013-03-11 21:23:00,
2013-03-11 17:32:00,40.0,36.0,30.19,South,181,7.0,11.0,86,0.00,,,0.00,,2013-03-11 21:32:00,
2013-03-11 17:44:00,40.0,36.0,30.19,South,181,7.0,11.0,86,0.00,,,0.00,,2013-03-11 21:44:00,
2013-03-11 17:53:00,39.0,35.0,30.19,SSW,195,5.0,13.0,86,0.00,,,0.00,,2013-03-11 21:53:00,
2013-03-11 18:03:00,39.0,35.0,30.19,South,189,8.0,13.0,86,0.00,,,0.00,,2013-03-11 22:03:00,
2013-03-11 18:12:00,39.0,35.0,30.19,South,189,8.0,13.0,86,0.00,,,0.00,,2013-03-11 22:12:00,
2013-03-11 18:23:00,39.0,35.0,30.19,SW,225,7.0,13.0,87,0.00,,,0.00,,2013-03-11 22:23:00,
2013-03-11 18:32:00,39.0,35.0,30.20,SSW,202,4.0,12.0,87,0.00,,,0.00,,2013-03-11 22:32:00,
2013-03-11 18:43:00,39.0,35.0,30.20,SSW,202,4.0,12.0,87,0.00,,,0.00,,2013-03-11 22:43:00,
2013-03-11 18:53:00,39.0,36.0,30.20,SSW,200,5.0,11.0,88,0.00,,,0.00,,2013-03-11 22:53:00,
2013-03-11 19:03:00,39.0,36.0,30.20,SSW,211,5.0,9.0,88,0.00,,,0.00,,2013-03-11 23:03:00,
2013-03-11 19:12:00,39.0,36.0,30.20,SSW,211,5.0,9.0,88,0.00,,,0.00,,2013-03-11 23:12:00,
2013-03-11 19:22:00,39.0,36.0,30.20,SSW,196,5.0,11.0,89,0.00,,,0.00,,2013-03-11 23:22:00,
2013-03-11 19:32:00,39.0,36.0,30.19,WSW,238,5.0,9.0,89,0.00,,,0.00,,2013-03-11 23:32:00,
2013-03-11 19:43:00,39.0,36.0,30.19,WSW,238,5.0,9.0,89,0.00,,,0.00,,2013-03-11 23:43:00,
2013-03-11 19:54:00,39.0,36.0,30.20,WSW,244,6.0,9.0,89,0.00,,,0.00,,2013-03-11 23:54:00,
2013-03-11 20:02:00,39.0,36.0,30.20,SW,234,5.0,9.0,89,0.00,,,0.00,,2013-03-12 00:02:00,
2013-03-11 20:13:00,39.0,36.0,30.20,SW,234,5.0,9.0,89,0.00,,,0.00,,2013-03-12 00:13:00,
2013-03-11 20:23:00,39.0,36.0,30.20,SSW,198,3.0,10.0,90,0.00,,,0.00,,2013-03-12 00:23:00,
2013-03-11 20:33:00,39.0,36.0,30.19,SSW,194,3.0,7.0,90,0.00,,,0.00,,2013-03-12 00:33:00,
2013-03-11 20:43:00,39.0,36.0,30.19,SSW,194,3.0,7.0,90,0.00,,,0.00,,2013-03-12 00:43:00,
2013-03-11 20:54:00,39.0,37.0,30.19,South,190,3.0,10.0,91,0.00,,,0.00,,2013-03-12 00:54:00,
2013-03-11 21:02:00,39.0,37.0,30.19,SW,235,3.0,7.0,91,0.00,,,0.00,,2013-03-12 01:02:00,
2013-03-11 21:12:00,39.0,37.0,30.19,SW,235,3.0,7.0,91,0.00,,,0.00,,2013-03-12 01:12:00,
2013-03-11 21:22:00,40.0,38.0,30.19,SSW,211,4.0,9.0,91,0.00,,,0.00,,2013-03-12 01:22:00,
2013-03-11 21:33:00,40.0,38.0,30.19,SSE,167,4.0,7.0,91,0.00,,,0.00,,2013-03-12 01:33:00,
2013-03-11 21:42:00,40.0,38.0,30.19,SSE,167,4.0,7.0,91,0.00,,,0.00,,2013-03-12 01:42:00,
2013-03-11 21:53:00,40.0,38.0,30.19,SSW,207,4.0,7.0,92,0.00,,,0.00,,2013-03-12 01:53:00,
2013-03-11 22:02:00,40.0,38.0,30.19,SW,229,4.0,8.0,92,0.00,,,0.00,,2013-03-12 02:02:00,
2013-03-11 22:12:00,40.0,38.0,30.19,SW,229,4.0,8.0,92,0.00,,,0.00,,2013-03-12 02:12:00,
2013-03-11 22:22:00,40.0,38.0,30.19,WSW,237,5.0,9.0,92,0.00,,,0.00,,2013-03-12 02:22:00,
2013-03-11 22:32:00,40.0,38.0,30.19,SSW,205,4.0,9.0,92,0.00,,,0.00,,2013-03-12 02:32:00,
2013-03-11 22:42:00,40.0,38.0,30.19,SSW,205,4.0,9.0,92,0.00,,,0.00,,2013-03-12 02:42:00,
2013-03-11 22:52:00,40.0,38.0,30.19,SW,215,5.0,11.0,92,0.00,,,0.00,,2013-03-12 02:52:00,
2013-03-11 23:02:00,40.0,38.0,30.18,SW,221,5.0,8.0,93,0.00,,,0.00,,2013-03-12 03:02:00,
2013-03-11 23:12:00,40.0,38.0,30.18,SW,221,5.0,8.0,93,0.00,,,0.00,,2013-03-12 03:12:00,
2013-03-11 23:22:00,40.0,38.0,30.18,SW,215,5.0,8.0,93,0.00,,,0.00,,2013-03-12 03:22:00,
2013-03-11 23:32:00,40.0,38.0,30.17,SW,218,3.0,9.0,93,0.00,,,0.00,,2013-03-12 03:32:00,
2013-03-11 23:42:00,40.0,38.0,30.17,SW,218,3.0,9.0,93,0.00,,,0.00,,2013-03-12 03:42:00,
2013-03-11 23:53:00,40.0,38.0,30.18,SW,232,3.0,8.0,93,0.00,,,0.00,,2013-03-12 03:53:00,